Location: Albuquerque Trailhead
(34.7934°N, 106.3736°W)
Time: 05:36:31
(UTC+00:00)

USA 267 - Pass Details

Date: 20 June 2021
Orbit: 1102 x 1106 km, 123.0° (Epoch: 24 July)

Event Time Altitude Azimuth Distance (km) Brightness Sun altitude
Exits shadow 06:41:08 19° 88° (E) 2,353 4.9 -31.4°
Maximum altitude 06:45:04 36° 35° (NE) 1,675 4.5 -31.5°
Drops below altitude 10° 06:50:54 10° 332° (NNW) 2,964 6.3 -31.6°
Sets 06:53:35 0° 324° (NW) 3,924 6.9 -31.7°
